Aberdeen, United Kingdom

7:15 PM GMT on February 22, 2017 (GMT +0000)
Dyce

Weather History for EGPD - February, 2013

Change the Weather History Date:

Monday, February 25, 2013

  Actual Average Record
Temperature  
Mean Temperature 36 °F -  
Max Temperature 46 °F 46 °F 55 °F (2011)
Min Temperature 26 °F 34 °F 26 °F (2002)
Degree Days  
Heating Degree Days 29    
Moisture  
Dew Point 32 °F    
Average Humidity 88    
Maximum Humidity 100    
Minimum Humidity 44    
Precipitation  
Precipitation 0.01 in 0.07 in - ()
Sea Level Pressure  
Sea Level Pressure 30.59 in    
Wind  
Wind Speed 4 mph ()    
Max Wind Speed 9 mph    
Max Gust Speed -    
Visibility 7.3 miles    
Events      
Averages and records for this station are not official NWS values.
T = Trace of Precipitation, MM = Missing Value Source: Averaged Metar Reports

Daily Weather History Graph

Daily Weather History Graph

Search for Another Location

Airport or City:

Trip Planner

Search our weather history database for the weather conditions in past years. The results will help you decide how hot, cold, wet, or windy it might be!

Date:

Astronomy

Feb. 25, 2013 Rise Set
Actual Time 7:12 AM GMT 5:32 PM GMT
Civil Twilight 6:33 AM GMT 6:11 PM GMT
Nautical Twilight 5:49 AM GMT 6:55 PM GMT
Astronomical Twilight 5:04 AM GMT 7:40 PM GMT
Moon 5:40 PM GMT (2/25) 6:30 AM GMT (2/25)
Length of Visible Light 11h 37m
Length of Day
10h 20m
Full, 100% of the Moon is Illuminated
Feb 25
Full
Feb 25
Full
Mar 4
Last Quarter
Mar 11
New
Mar 19
First Quarter

Hourly Weather History & Observations

Time (GMT) Temp. Windchill Dew Point Humidity Pressure Visibility Wind Dir Wind Speed Gust Speed Precip Events Conditions
12:20 AM 30.2 °F 26.7 °F 28.4 °F 93% 30.51 in - NW 3.5 mph - N/A   Clear
12:50 AM 32.0 °F 28.7 °F 32.0 °F 100% 30.51 in - Variable 3.5 mph - N/A   Clear
1:20 AM 32.0 °F - 30.2 °F 93% 30.51 in 6.2 mi NW 2.3 mph - N/A   Unknown
1:50 AM 32.0 °F - 30.2 °F 93% 30.51 in - WNW 2.3 mph - N/A   Clear
2:20 AM 30.2 °F 26.7 °F 28.4 °F 93% 30.51 in 6.2 mi Variable 3.5 mph - N/A   Unknown
2:50 AM 31 °F - 29 °F 92% 30.52 in 10 mi North 4.6 mph - -  
2:50 AM 30.2 °F 26.7 °F 30.2 °F 100% 30.51 in - WNW 3.5 mph - N/A   Clear
3:20 AM 30.2 °F 26.7 °F 30.2 °F 100% 30.51 in 5.6 mi NNW 3.5 mph - N/A   Mostly Cloudy
3:50 AM 30.2 °F - 30.2 °F 100% 30.51 in 5.0 mi Variable 2.3 mph - N/A   Mostly Cloudy
4:20 AM 32.0 °F 27.5 °F 32.0 °F 100% 30.54 in 6.2 mi West 4.6 mph - N/A   Scattered Clouds
4:50 AM 32.0 °F 28.7 °F 32.0 °F 100% 30.54 in 6.2 mi Variable 3.5 mph - N/A   Scattered Clouds
5:20 AM 32.0 °F 28.7 °F 32.0 °F 100% 30.54 in 6.2 mi NNW 3.5 mph - N/A   Scattered Clouds
5:50 AM 35 °F - 34 °F 92% 30.55 in 14 mi North 5.8 mph - -  
5:50 AM 30.2 °F 25.4 °F 30.2 °F 100% 30.54 in 6.2 mi NNW 4.6 mph - N/A   Partly Cloudy
6:20 AM 32.0 °F 26.4 °F 30.2 °F 93% 30.54 in - North 5.8 mph - N/A   Clear
6:50 AM 33.8 °F 28.6 °F 32.0 °F 93% 30.54 in 6.2 mi North 5.8 mph - N/A   Partly Cloudy
7:20 AM 32.0 °F 26.4 °F 32.0 °F 100% 30.54 in 6.2 mi North 5.8 mph - N/A   Partly Cloudy
7:50 AM 32.0 °F 26.4 °F 32.0 °F 100% 30.57 in 6.2 mi North 5.8 mph - N/A   Partly Cloudy
8:20 AM 33.8 °F 29.6 °F 32.0 °F 93% 30.57 in 6.2 mi North 4.6 mph - N/A   Partly Cloudy
8:50 AM 37 °F - 34 °F 83% 30.58 in 14 mi North 4.6 mph - -  
8:50 AM 35.6 °F 30.7 °F 33.8 °F 93% 30.57 in - North 5.8 mph - N/A   Clear
9:20 AM 37.4 °F 32.1 °F 33.8 °F 87% 30.57 in 6.2 mi North 6.9 mph - N/A   Partly Cloudy
9:50 AM 37.4 °F 30.8 °F 35.6 °F 93% 30.57 in - NNW 9.2 mph - N/A   Clear
10:20 AM 39.2 °F 34.2 °F 35.6 °F 87% 30.57 in - North 6.9 mph - N/A   Clear
10:50 AM 41.0 °F 38.0 °F 37.4 °F 87% 30.60 in 6.2 mi North 4.6 mph - N/A   Partly Cloudy
11:20 AM 41.0 °F 38.0 °F 37.4 °F 87% 30.60 in 6.2 mi North 4.6 mph - N/A   Scattered Clouds
11:50 AM 43 °F - 36 °F 69% 30.61 in 16 mi East 3.5 mph - -   Scattered Clouds
11:50 AM 42.8 °F 40.1 °F 37.4 °F 81% 30.60 in 6.2 mi NNE 4.6 mph - N/A   Scattered Clouds
12:20 PM 42.8 °F 40.1 °F 35.6 °F 76% 30.60 in 6.2 mi NNE 4.6 mph - N/A   Scattered Clouds
12:50 PM 42.8 °F 41.1 °F 35.6 °F 76% 30.60 in 6.2 mi Variable 3.5 mph - N/A   Partly Cloudy
1:20 PM 42.8 °F 41.1 °F 35.6 °F 76% 30.60 in 6.2 mi Variable 3.5 mph - N/A   Partly Cloudy
1:50 PM 44.6 °F - 33.8 °F 66% 30.60 in 6.2 mi Variable 2.3 mph - N/A   Partly Cloudy
2:20 PM 44.6 °F 43.1 °F 30.2 °F 57% 30.60 in 6.2 mi Variable 3.5 mph - N/A   Partly Cloudy
2:50 PM 45 °F - 30 °F 44% 30.60 in 22 mi ESE 4.6 mph - -  
2:50 PM 44.6 °F 42.2 °F 32.0 °F 61% 30.60 in 6.2 mi East 4.6 mph - N/A   Partly Cloudy
3:20 PM 44.6 °F 42.2 °F 33.8 °F 66% 30.60 in - East 4.6 mph - N/A   Clear
3:50 PM 42.8 °F 40.1 °F 33.8 °F 70% 30.60 in - East 4.6 mph - N/A   Clear
4:20 PM 42.8 °F 41.1 °F 33.8 °F 70% 30.60 in - Variable 3.5 mph - N/A   Clear
4:50 PM 41.0 °F 37.1 °F 33.8 °F 76% 30.60 in - ESE 5.8 mph - N/A   Clear
5:20 PM 41.0 °F 38.0 °F 33.8 °F 76% 30.60 in - ESE 4.6 mph - N/A   Clear
5:50 PM 38 °F - 34 °F 81% 30.62 in 16 mi SE 2.3 mph - -  
5:50 PM 39.2 °F 37.0 °F 33.8 °F 81% 30.60 in - SE 3.5 mph - N/A   Clear
6:20 PM 35.6 °F - 32.0 °F 87% 30.63 in - Variable 2.3 mph - N/A   Clear
6:50 PM 30.2 °F - 28.4 °F 93% 30.63 in - Variable 2.3 mph - N/A   Clear
7:20 PM 32.0 °F 27.5 °F 30.2 °F 93% 30.63 in - WSW 4.6 mph - N/A   Clear
7:50 PM 32.0 °F 27.5 °F 30.2 °F 93% 30.63 in - WSW 4.6 mph - N/A   Clear
8:20 PM 32.0 °F 28.7 °F 30.2 °F 93% 30.63 in - WNW 3.5 mph - N/A   Clear
8:50 PM 32 °F - 30 °F 90% 30.66 in 7 mi NE 1.2 mph - -  
8:50 PM 30.2 °F - 30.2 °F 100% 30.63 in - Calm Calm - N/A   Clear
9:20 PM 30.2 °F - 28.4 °F 93% 30.66 in - North 2.3 mph - N/A   Clear
9:50 PM 30.2 °F - 28.4 °F 93% 30.66 in - Calm Calm - N/A   Clear
10:20 PM 28.4 °F - 28.4 °F 100% 30.66 in - NNW 2.3 mph - N/A   Clear
10:50 PM 28.4 °F - 28.4 °F 100% 30.66 in - Calm Calm - N/A   Clear
11:20 PM 26.6 °F - 26.6 °F 100% 30.66 in 6.2 mi Calm Calm - N/A   Unknown
11:50 PM 28 °F - 27 °F 94% 30.67 in 4 mi Calm Calm - -   Mist
11:50 PM 26.6 °F - 26.6 °F 100% 30.66 in 4.3 mi NNW 2.3 mph - N/A   Unknown